Weather History for KDUJ - July, 2013

Change the Weather History Date:

Wednesday, July 24, 2013

  Actual Average Record
Temperature  
Mean Temperature 63 °F 68 °F  
Max Temperature 71 °F 79 °F 89 °F (1987)
Min Temperature 54 °F 58 °F 49 °F (1993)
Degree Days  
Heating Degree Days 2 1  
Month to date heating degree days 2 24  
Since 1 June heating degree days 40 109  
Since 1 July heating degree days 2 24  
Cooling Degree Days 0 4  
Month to date cooling degree days 215 96  
Year to date cooling degree days 366 190  
Since 1 June cooling degree days 307 167  
Growing Degree Days 13 (Base 50)    
Moisture  
Dew Point 54 °F    
Average Humidity 71    
Maximum Humidity 93    
Minimum Humidity 49    
Precipitation  
Precipitation 0.00 in 0.13 in 0.77 in (1968)
Month to date precipitation 3.50 3.32  
Sea Level Pressure  
Sea Level Pressure 29.87 in    
Wind  
Wind Speed 9 mph (NNW)    
Max Wind Speed 18 mph    
Max Gust Speed 23 mph    
Visibility 10 miles    
Events      
T = Trace of Precipitation, MM = Missing Value Source: NWS Daily Summary

Daily Weather History Graph

Daily Weather History Graph

Search for Another Location

Airport or City:

Trip Planner

Search our weather history database for the weather conditions in past years. The results will help you decide how hot, cold, wet, or windy it might be!

Date:

Astronomy

Jul. 24, 2013 Rise Set
Actual Time 6:03 AM EDT 8:39 PM EDT
Civil Twilight 5:31 AM EDT 9:11 PM EDT
Nautical Twilight 4:52 AM EDT 9:51 PM EDT
Astronomical Twilight 4:07 AM EDT 10:35 PM EDT
Moon 9:42 PM EDT (7/24) 8:23 AM EDT (7/24)
Length of Visible Light 15h 39m
Length of Day
14h 36m
Waning Gibbous, 95% of the Moon is Illuminated
Jul 24
Waning Gibbous
Jul 29
Last Quarter
Aug 6
New
Aug 14
First Quarter
Aug 20
Full

Hourly Weather History & Observations

Time (EDT) Temp. Dew Point Humidity Pressure Visibility Wind Dir Wind Speed Gust Speed Precip Events Conditions
12:56 AM 64.9 °F 62.1 °F 90% 29.74 in 8.0 mi WSW 9.2 mph - N/A   Overcast
1:37 AM 64.4 °F 62.6 °F 94% 29.78 in 9.0 mi West 8.1 mph - N/A   Overcast
1:54 AM 64.4 °F 62.6 °F 94% 29.79 in 8.0 mi West 6.9 mph - N/A   Overcast
1:56 AM 64.9 °F 63.0 °F 93% 29.75 in 8.0 mi West 9.2 mph - N/A   Overcast
2:17 AM 64.4 °F 62.6 °F 94% 29.79 in 7.0 mi NW 9.2 mph - N/A   Overcast
2:35 AM 64.4 °F 60.8 °F 88% 29.79 in 9.0 mi NNW 11.5 mph - N/A   Overcast
2:56 AM 64.0 °F 60.1 °F 87% 29.75 in 10.0 mi NNW 10.4 mph 18.4 mph N/A   Overcast
3:18 AM 62.6 °F 59.0 °F 88% 29.79 in 10.0 mi NNW 10.4 mph - N/A   Overcast
3:56 AM 62.1 °F 57.0 °F 84% 29.76 in 10.0 mi NNW 18.4 mph 21.9 mph N/A   Overcast
4:22 AM 60.8 °F 55.4 °F 82% 29.81 in 10.0 mi NW 9.2 mph - N/A   Overcast
4:53 AM 60.8 °F 55.4 °F 82% 29.80 in 10.0 mi NNW 6.9 mph 18.4 mph N/A   Mostly Cloudy
4:56 AM 60.1 °F 55.0 °F 83% 29.77 in 10.0 mi NNW 8.1 mph - N/A   Mostly Cloudy
5:56 AM 57.9 °F 53.1 °F 84% 29.79 in 10.0 mi NNW 6.9 mph - N/A   Scattered Clouds
6:56 AM 57.0 °F 53.1 °F 87% 29.83 in 10.0 mi West 3.5 mph - N/A   Clear
7:31 AM 59.0 °F 53.6 °F 82% 29.85 in 10.0 mi NW 5.8 mph - N/A   Partly Cloudy
7:44 AM 59.0 °F 53.6 °F 82% 29.86 in 10.0 mi NW 6.9 mph - N/A   Mostly Cloudy
7:56 AM 60.1 °F 54.0 °F 80% 29.84 in 10.0 mi NNW 6.9 mph - N/A   Mostly Cloudy
8:25 AM 60.8 °F 55.4 °F 82% 29.88 in 10.0 mi Variable 5.8 mph - N/A   Mostly Cloudy
8:54 AM 60.8 °F 53.6 °F 77% 29.89 in 10.0 mi North 6.9 mph - N/A   Overcast
8:56 AM 62.1 °F 54.0 °F 75% 29.87 in 10.0 mi North 10.4 mph - N/A   Overcast
9:38 AM 60.8 °F 53.6 °F 77% 29.91 in 10.0 mi NNW 8.1 mph - N/A   Overcast
9:56 AM 61.0 °F 52.0 °F 72% 29.90 in 10.0 mi North 11.5 mph - N/A   Overcast
10:26 AM 62.6 °F 53.6 °F 72% 29.92 in 10.0 mi WNW 10.4 mph - N/A   Overcast
10:56 AM 62.1 °F 50.0 °F 65% 29.92 in 10.0 mi NNW 11.5 mph - N/A   Overcast
11:56 AM 63.0 °F 50.0 °F 63% 29.93 in 10.0 mi North 11.5 mph - N/A   Overcast
12:56 PM 64.9 °F 50.0 °F 58% 29.93 in 10.0 mi North 9.2 mph - N/A   Overcast
1:56 PM 66.0 °F 51.1 °F 59% 29.92 in 10.0 mi Variable 5.8 mph - N/A   Mostly Cloudy
2:56 PM 68.0 °F 51.1 °F 55% 29.92 in 10.0 mi North 5.8 mph - N/A   Scattered Clouds
3:56 PM 68.0 °F 51.1 °F 55% 29.93 in 10.0 mi NW 6.9 mph - N/A   Scattered Clouds
4:56 PM 69.1 °F 50.0 °F 51% 29.93 in 10.0 mi North 8.1 mph - N/A   Scattered Clouds
5:56 PM 68.0 °F 50.0 °F 52% 29.94 in 10.0 mi NW 8.1 mph - N/A   Scattered Clouds
6:56 PM 68.0 °F 48.0 °F 49% 29.94 in 10.0 mi NW 9.2 mph - N/A   Scattered Clouds
7:56 PM 66.0 °F 48.9 °F 54% 29.96 in 10.0 mi NW 8.1 mph - N/A   Mostly Cloudy
8:56 PM 62.1 °F 50.0 °F 65% 29.97 in 10.0 mi NNW 5.8 mph - N/A   Clear
9:56 PM 60.1 °F 50.0 °F 69% 29.99 in 10.0 mi North 10.4 mph - N/A   Clear
10:56 PM 57.9 °F 48.9 °F 72% 30.01 in 10.0 mi NNE 10.4 mph - N/A   Clear
11:56 PM 55.0 °F 48.9 °F 80% 30.03 in 10.0 mi NE 5.8 mph - N/A   Clear